Date String (YYYY-MM-DD hh:mm:ss) UTC,Instrument flags,absolute air pressure of the measurement (hPa),sample flow rate (lpm),inlet stack bypass flow (lpm),air temperature of the measurement (°C),ambient temperature measured by the external sensor (°C),aerosol sample conditioner tube jacket temperature (°C),OPC LED temperature (°C),internal box temperature (°C),relative humidity of the measurement (%),span deviation,mass concentration of particles derived from Lorenz-Mie calculation of OPC scattering (μg/m³),mass concentration of particles derived from Lorenz-Mie calculation of OPC scattering (μg/m³),mass concentration of particles derived from Lorenz-Mie calculation of OPC scattering (μg/m³)
DateTimeUTC,F1_M11,P_M11,Q1_M11,Q2_M11,T1_M11,T2_M11,T3_M11,T4_M11,T5_M11,U1_M11,ZSPAN_M11,X0_M11,X2_M11,X1_M11
2023-08-06 04:00:00,SystemResetWarning,0838.6,5.00,000.00,029.9,028.5,000.0,038.3,031.4,34.2,0000.0,0010.86,0004.63,0003.80
2023-08-06 04:01:00,SystemResetWarning,0838.6,4.99,000.00,029.9,027.2,000.0,038.1,031.2,34.0,0000.0,0011.18,0004.64,0003.80
2023-08-06 04:02:00,SystemResetWarning,0838.6,5.00,000.00,029.8,025.7,000.0,038.0,031.0,34.1,0000.0,0011.42,0004.69,0003.80
2023-08-06 04:03:00,SystemResetWarning,0838.6,5.00,000.00,029.7,025.4,000.0,038.0,030.7,34.3,0000.0,0011.37,0004.67,0003.80
2023-08-06 04:04:00,SystemResetWarning,0838.6,5.01,000.00,029.6,025.6,000.0,038.0,030.6,34.8,0000.0,0011.43,0004.69,0003.80
2023-08-06 04:05:00,SystemResetWarning,0838.6,5.00,000.00,029.5,026.0,000.0,038.0,030.7,34.9,0000.0,0011.35,0004.71,0003.80
2023-08-06 04:06:00,SystemResetWarning,0838.6,5.00,000.00,029.6,026.5,000.0,038.1,030.9,35.1,0000.0,0011.16,0004.72,0003.81
2023-08-06 04:07:00,SystemResetWarning,0838.7,5.00,000.00,029.8,026.8,000.0,038.1,031.0,34.7,0000.0,0011.29,0004.74,0003.83
2023-08-06 04:08:00,SystemResetWarning,0838.6,5.00,000.00,029.9,027.2,000.0,038.1,031.1,34.3,0000.0,0011.57,0004.75,0003.85
2023-08-06 04:09:00,SystemResetWarning,0838.6,5.02,000.00,030.0,027.4,000.0,038.1,031.2,33.9,0000.0,0010.94,0004.75,0003.87
2023-08-06 04:10:00,SystemResetWarning,0838.7,4.99,000.00,030.1,027.7,000.0,038.2,031.2,33.6,0000.0,0010.79,0004.76,0003.90
2023-08-06 04:11:00,SystemResetWarning,0838.7,4.99,000.00,030.1,027.9,000.0,038.2,031.2,33.1,0000.0,0010.10,0004.79,0003.93
2023-08-06 04:12:00,SystemResetWarning,0838.7,5.00,000.00,030.2,028.0,000.0,038.3,031.3,33.0,0000.0,0009.57,0004.80,0003.97
2023-08-06 04:13:00,SystemResetWarning,0838.7,5.01,000.00,030.2,028.2,000.0,038.3,031.3,33.1,0000.0,0008.88,0004.78,0003.99
2023-08-06 04:14:00,SystemResetWarning,0838.7,5.01,000.00,030.2,028.3,000.0,038.4,031.4,33.1,0000.0,0009.77,0004.86,0004.03
2023-08-06 04:15:00,SystemResetWarning,0838.8,5.01,000.00,030.3,028.4,000.0,038.4,031.4,33.0,0000.0,0009.97,0004.91,0004.05
2023-08-06 04:16:00,SystemResetWarning,0838.8,5.00,000.00,030.3,028.5,000.0,038.5,031.4,32.7,0000.0,0009.90,0004.91,0004.07
2023-08-06 04:17:00,SystemResetWarning,0838.8,5.00,000.00,030.3,028.6,000.0,038.5,031.5,32.6,0000.0,0009.97,0004.92,0004.09
2023-08-06 04:18:00,SystemResetWarning,0838.8,4.99,000.00,030.3,028.6,000.0,038.6,031.5,32.7,0000.0,0009.90,0004.90,0004.11
2023-08-06 04:19:00,SystemResetWarning,0838.8,4.99,000.00,030.4,027.4,000.0,038.5,031.4,32.7,0000.0,0009.74,0004.90,0004.12
2023-08-06 04:20:00,SystemResetWarning,0838.7,5.00,000.00,030.3,025.8,000.0,038.3,031.0,32.7,0000.0,0009.79,0004.95,0004.13
2023-08-06 04:21:00,SystemResetWarning,0838.7,5.00,000.00,030.2,025.4,000.0,038.3,030.8,32.8,0000.0,0011.05,0004.97,0004.13
2023-08-06 04:22:00,SystemResetWarning,0838.7,5.01,000.00,030.0,025.6,000.0,038.3,030.7,33.1,0000.0,0011.58,0004.98,0004.14
2023-08-06 04:23:00,SystemResetWarning,0838.8,5.01,000.00,030.0,026.0,000.0,038.4,030.8,32.9,0000.0,0011.94,0005.01,0004.15
2023-08-06 04:24:00,SystemResetWarning,0838.8,5.00,000.00,029.9,026.4,000.0,038.4,030.9,32.9,0000.0,0012.41,0005.04,0004.15
2023-08-06 04:25:00,SystemResetWarning,0838.8,5.00,000.00,029.9,026.8,000.0,038.4,031.0,32.6,0000.0,0012.14,0005.07,0004.16
2023-08-06 04:26:00,SystemResetWarning,0838.8,4.99,000.00,029.9,027.1,000.0,038.4,031.1,32.6,0000.0,0012.34,0005.09,0004.17
2023-08-06 04:27:00,SystemResetWarning,0838.8,4.99,000.00,029.9,027.4,000.0,038.4,031.1,32.6,0000.0,0012.46,0005.08,0004.17
2023-08-06 04:28:00,SystemResetWarning,0838.8,5.01,000.00,029.9,027.7,000.0,038.4,031.2,32.5,0000.0,0012.40,0005.07,0004.16
2023-08-06 04:29:00,SystemResetWarning,0838.8,5.00,000.00,029.9,027.9,000.0,038.4,031.2,32.2,0000.0,0012.79,0005.07,0004.16
2023-08-06 04:30:00,SystemResetWarning,0838.9,5.01,000.00,030.0,028.0,000.0,038.4,031.3,32.1,0000.0,0012.91,0005.07,0004.14
2023-08-06 04:31:00,SystemResetWarning,0838.9,5.01,000.00,030.0,028.2,000.0,038.4,031.3,32.1,0000.0,0012.71,0005.03,0004.13
2023-08-06 04:32:00,SystemResetWarning,0838.9,4.99,000.00,030.0,028.3,000.0,038.4,031.3,31.9,0000.0,0011.59,0005.00,0004.12
2023-08-06 04:33:00,SystemResetWarning,0838.9,4.99,000.00,030.0,028.4,000.0,038.5,031.4,31.7,0000.0,0010.89,0004.97,0004.10
2023-08-06 04:34:00,SystemResetWarning,0838.9,5.00,000.00,030.0,028.5,000.0,038.5,031.4,31.0,0000.0,0010.49,0004.92,0004.08
2023-08-06 04:35:00,SystemResetWarning,0838.9,5.01,000.00,030.0,028.5,000.0,038.5,031.4,30.8,0000.0,0010.22,0004.91,0004.07
2023-08-06 04:36:00,SystemResetWarning,0838.9,5.01,000.00,030.1,028.6,000.0,038.5,031.5,30.9,0000.0,0009.91,0004.81,0004.05
2023-08-06 04:37:00,SystemResetWarning,0838.9,4.98,000.00,030.1,027.7,000.0,038.4,031.4,31.0,0000.0,0009.71,0004.73,0004.03
2023-08-06 04:38:00,SystemResetWarning,0838.9,5.01,000.00,030.0,026.0,000.0,038.3,031.1,31.0,0000.0,0009.46,0004.73,0004.01
2023-08-06 04:39:00,SystemResetWarning,0838.9,5.02,000.00,030.0,025.4,000.0,038.2,030.9,31.2,0000.0,0009.52,0004.70,0003.99
2023-08-06 04:40:00,SystemResetWarning,0838.9,4.99,000.00,029.8,025.6,000.0,038.2,030.7,31.4,0000.0,0009.15,0004.67,0003.98
2023-08-06 04:41:00,SystemResetWarning,0838.9,5.00,000.00,029.7,026.0,000.0,038.2,030.7,31.6,0000.0,0008.77,0004.63,0003.97
2023-08-06 04:42:00,SystemResetWarning,0838.9,5.00,000.00,029.7,026.4,000.0,038.3,030.9,31.6,0000.0,0009.00,0004.64,0003.96
2023-08-06 04:43:00,SystemResetWarning,0838.8,5.00,000.00,029.7,026.8,000.0,038.3,030.9,31.6,0000.0,0008.80,0004.60,0003.96
2023-08-06 04:44:00,SystemResetWarning,0838.8,5.00,000.00,029.7,027.1,000.0,038.3,031.0,31.6,0000.0,0008.79,0004.57,0003.95
2023-08-06 04:45:00,SystemResetWarning,0838.9,5.00,000.00,029.7,027.4,000.0,038.3,031.1,31.7,0000.0,0009.42,0004.55,0003.92
2023-08-06 04:46:00,SystemResetWarning,0839.0,5.01,000.00,029.7,027.6,000.0,038.3,031.1,31.6,0000.0,0009.24,0004.49,0003.90
2023-08-06 04:47:00,SystemResetWarning,0839.0,5.01,000.00,029.7,027.8,000.0,038.3,031.2,31.6,0000.0,0008.92,0004.48,0003.87
2023-08-06 04:48:00,SystemResetWarning,0839.0,5.00,000.00,029.7,028.0,000.0,038.3,031.2,31.6,0000.0,0008.50,0004.41,0003.84
2023-08-06 04:49:00,SystemResetWarning,0839.0,5.00,000.00,029.7,028.1,000.0,038.3,031.2,31.6,0000.0,0008.33,0004.32,0003.81
2023-08-06 04:50:00,SystemResetWarning,0839.0,5.00,000.00,029.8,028.2,000.0,038.3,031.3,31.7,0000.0,0008.15,0004.28,0003.80
2023-08-06 04:51:00,SystemResetWarning,0839.0,5.00,000.00,029.8,028.3,000.0,038.3,031.3,31.6,0000.0,0008.12,0004.25,0003.77
2023-08-06 04:52:00,SystemResetWarning,0839.0,5.00,000.00,029.8,028.4,000.0,038.3,031.3,31.6,0000.0,0008.05,0004.19,0003.74
2023-08-06 04:53:00,SystemResetWarning,0839.0,5.00,000.00,029.8,028.5,000.0,038.3,031.4,31.6,0000.0,0007.75,0004.12,0003.70
2023-08-06 04:54:00,SystemResetWarning,0839.0,5.00,000.00,029.9,028.5,000.0,038.3,031.4,31.6,0000.0,0007.71,0004.09,0003.67
2023-08-06 04:55:00,SystemResetWarning,0839.0,5.00,000.00,029.9,026.8,000.0,038.2,031.2,31.6,0000.0,0007.61,0004.04,0003.64
2023-08-06 04:56:00,SystemResetWarning,0838.9,5.00,000.00,029.8,025.6,000.0,038.1,030.9,31.7,0000.0,0006.74,0003.98,0003.60
2023-08-06 04:57:00,SystemResetWarning,0838.9,5.00,000.00,029.7,025.4,000.0,038.0,030.7,31.9,0000.0,0006.92,0003.93,0003.55
2023-08-06 04:58:00,SystemResetWarning,0838.9,5.00,000.00,029.6,025.6,000.0,038.1,030.6,32.2,0000.0,0007.62,0003.89,0003.52
2023-08-06 04:59:00,SystemResetWarning,0838.9,5.02,000.00,029.5,026.0,000.0,038.1,030.7,32.3,0000.0,0007.52,0003.83,0003.47
